Preview of NWS' New Version of Forecast
This preview is not operational and should not be used for support decisions.

Regional Weather Roundup (RWR)

Issued by National Weather Service (NWS)

                            
000
ASUS46 KSEW 221010
RWRWA 

WASHINGTON REGIONAL WEATHER ROUNDUP
NATIONAL WEATHER SERVICE SEATTLE WA
300 AM PDT MON JUL 22 2019

NOTE:"FAIR" INDICATES FEW OR NO CLOUDS BELOW 12,000 FEET WITH NO 
SIGNIFICANT WEATHER AND/OR OBSTRUCTIONS TO VISIBILITY.

WAZ507-509-555>559-221100-
SEATTLE, TACOMA, EVERETT, AND VICINITY
  
CITY           SKY/WX    TMP DP  RH WIND       PRES   REMARKS
EVERETT        CLEAR     60  46  59 CALM      29.99R                  
BOEING FIELD   CLEAR     63  48  58 CALM      29.98S                  
RENTON         PTCLDY    62  55  77 SE3       29.98R                  
SEATAC AIRPORT PTCLDY    63  49  60 SW5       29.99R                  
JBLM-MCCHORD   PTCLDY    62  53  72 CALM      29.99R                  
PUYALLUP       FAIR      57  54  88 CALM      29.99S                  
BREMERTON      CLEAR     53  50  89 SW3       29.99R                  
JBLM-FT LEWIS  PTCLDY    61  51  70 SW5       29.98S                  
TACOMA NARROWS PTCLDY    59  49  69 SW3       29.99S                  
$$
 
WAZ001-503-506-510-514-515-221100-
NORTH INTERIOR
  
CITY           SKY/WX    TMP DP  RH WIND       PRES   REMARKS
BELLINGHAM     CLEAR     62  51  67 S6        29.94S                  
FRIDAY HARBOR  CLEAR     50  48  93 CALM      29.95S                  
EASTSOUND      CLEAR     59  54  82 S7        29.92F                  
PORT ANGELES   CLEAR     58  45  62 W9        29.98R                  
EDIZ HOOK      FAIR      58  49  72 W16G22    29.97R                  
PORT TOWNSEND  FAIR      50  48  93 CALM      29.97R                  
NAS WHIDBEY    PTCLDY    59  52  77 S7        30.00S                  
ARLINGTON        N/A     53  49  86 N3        29.98S                  
BURLINGTON     CLEAR     55  50  82 S6        29.97S                  
$$
 
WAZ020-022-039-040-504-511-512-221100-
SOUTHWEST INTERIOR
  
CITY           SKY/WX    TMP DP  RH WIND       PRES   REMARKS
SHELTON        CLOUDY    58  53  84 W13       29.97R                  
OLYMPIA        CLEAR     55  49  80 CALM      29.99R                  
CHEHALIS       FAIR      57  55  94 CALM      30.01R                  
KELSO          CLEAR     60  55  83 CALM      30.01S                  
VANCOUVER      CLEAR     62  48  60 CALM      29.98S                  
SCAPPOOSE, OR  CLEAR     58  51  78 CALM      29.98R                  
PORTLAND, OR   CLEAR     64  49  57 VRB3      29.99R                  
$$
 
WAZ021-516-517-221100-
WASHINGTON COAST
  
CITY           SKY/WX    TMP DP  RH WIND       PRES   REMARKS
FORKS          CLEAR     50  49  96 CALM      30.01S                  
HOQUIAM        PTCLDY    59  59 100 NW5       30.02R                  
ASTORIA, OR    PTCLDY    54  52  93 SE5       30.02S                  
$$
 
WAZ019-023-024-040-567>569-221100-
CASCADE MOUNTAINS AND COLUMBIA GORGE
  
CITY           SKY/WX    TMP DP  RH WIND       PRES   REMARKS
STAMPEDE PASS  CLEAR     64  41  42 CALM      30.08S                  
TROUTDALE, OR  CLEAR     63  50  62 W3        29.98S                  
HOOD RIVER, OR SUNNY     63  52  67 S3        29.93S                  
THE DALLES, OR CLEAR     72  55  55 NW12      29.88S                  
$$

WAZ026-027-041>044-520-521-221100-
EAST SLOPES
  
CITY           SKY/WX    TMP DP  RH WIND       PRES   REMARKS
OMAK           CLEAR     57  39  51 N6        29.98S                  
WENATCHEE      PTCLDY    67  44  43 SW13      29.95S                  
ELLENSBURG     PTCLDY    60  45  57 E7        29.96S                  
YAKIMA         PTCLDY    63  47  55 W9        29.92F                  
SUNNYSIDE ARPT MOSUNNY   57  53  84 CALM      29.88                   
YAKIMA TC      FAIR      63  34  33 CALM      29.91F                  
$$

WAZ028-034-035-221100-
COLUMBIA BASIN
  
CITY           SKY/WX    TMP DP  RH WIND       PRES   REMARKS
EPHRATA        PTCLDY    73  35  25 NW12      29.92R                  
MOSES LAKE     PTCLDY    67  39  35 N8        29.92S                  
PASCO          PTCLDY    62  54  74 N5        29.85F                  
RICHLAND ARPT  MOSUNNY   69  44  40 W5        29.85                   
HERMISTON, OR  PTCLDY    65  44  46 S8        29.86F                  
$$

WAZ036>038-221100-
NORTHEAST WASHINGTON
  
CITY           SKY/WX    TMP DP  RH WIND       PRES   REMARKS
SPOKANE GEIGER PTCLDY    67  43  41 NE6       30.00S                  
SPOKANE FELTS  CLEAR     60  48  64 CALM      29.99S                  
FAIRCHILD AFB  CLEAR     62  41  47 NE5       29.99F                  
COEURDALENE,ID CLEAR     60  47  61 NE9       30.01F                  
DEER PARK      CLEAR     61  41  47 NE7       30.00S                  
$$

WAZ029>033-221100-
SOUTHEAST WASHINGTON
  
CITY           SKY/WX    TMP DP  RH WIND       PRES   REMARKS
PULLMAN        PTCLDY    66  41  40 CALM      30.00S                  
LEWISTON, ID   MOCLDY    69  42  37 NE8       29.91F                  
WALLA WALLA    MOCLDY    73  43  33 SE6       29.86F                  
PENDLETON, OR  PTCLDY    67  42  40 SE9       29.91R                  
$$